www.pogodaiklimat.ru

Погода и климат >> Архив погоды >> Россия >> Сахалинская область >> Поронайск


ПОГОДА в Поронайске

  • Прогноз погоды в Поронайске
  • Монитор погоды в Поронайске
  • Климат города

АРХИВ ПОГОДЫ в Поронайске

Время (UTC), дата Ветер
(напр.,м/с)
 
Видим.   Явления Облачность Т
(С)
Тd
(С)
f
(%)
Тe
(С)
Тes
(С)
Комфортность P
(гПа)
Po
(гПа)
Тmin
(С)
Tmax
(С)
R
(мм)
R24
(мм)
S
(см)
06 16.01 С 1-2
{2}
20 км ясно -11.0 -18.4 54 -13 -13 1017.7 1016.5
09 16.01 СВ 2-3
{3}
20 км ясно -19.8 -23.6 72 -26 -26 1018.3 1017.1
12 16.01 СЗ 2-3
{3}
10 км слабый ливневой снег 8/8 420 м
[Cb cap]
-19.8 -22.7 78 -26 -26 1018.8 1017.6
15 16.01 СВ 2-4
{4}
20 км {ливн. осадки} 3/0
[Ac trans]
-21.5 -24.0 80 -28 -28 1019.7 1018.4
18 16.01 С 2-3
{4}
20 км {ливн. осадки} ясно -24.3 -26.6 81 -31 -31 опасность
обморожения
1020.0 1018.7
21 16.01 С 2-3
{3}
20 км ясно -30.1 -33.2 74 -38 -38 опасность
обморожения
1021.0 1019.7 -31.0 0.0 106
00 17.01 С 1-2
{5}
20 км 3/3 600 м
[Cb cap]
-24.3 -26.8 80 -28 -27 1022.5 1021.3 -31.7
03 17.01 В 2-3
{3}
20 км 3/3 600 м
[Cb cap]
-15.6 -19.5 72 -21 -19 1021.6 1020.4
06 17.01 В 1-2
{3}
20 км слабый ливневой снег 5/5 500 м
[Cb cap]
-14.2 -17.4 77 -17 -17 1020.9 1019.7
09 17.01 С 1-2
{3}
20 км слабый ливневой снег 8/5 600 м
[Cb cap Ac lent]
-20.8 -23.3 80 -24 -24 1021.5 1020.2 -14.2 0.0
12 17.01 С 2-4
{4}
20 км слабый ливневой снег 10/6 540 м
[Cb cap Ci ing]
-20.5 -22.7 82 -26 -26 1020.9 1019.7
15 17.01 С 2-3
{3}
20 км слабый ливневой снег 5/5 600 м
[Cb cap]
-18.9 -20.9 84 -25 -25 1019.9 1018.7
18 17.01 С 2-3
{4}
10 км слабый ливневой снег 10/6 600 м
[Cb cap Ci ing]
-17.6 -19.6 84 -23 -23 1018.6 1017.4
21 17.01 С 2-4
{4}
4000 м слабый ливневой снег 10/8 330 м
[Cb cap Ci ing]
-16.8 -18.7 85 -22 -22 1016.8 1015.6 -22.6 0.0 107
00 18.01 С 2-3
{4}
4000 м слабый ливневой снег 10/8 300 м
[Cb cap Ac As Ci ing]
-14.9 -16.7 86 -20 -20 1015.8 1014.6
03 18.01 С 1-2
{3}
4000 м слабый ливневой снег 10/6 600 м
[Cb cap Ac As Ci ing]
-11.4 -13.9 82 -14 -13 1013.2 1012.0
06 18.01 С 1-2
{3}
20 км в посл. час ливневой снег 10/3 600 м
[Cb cap Ac trans Cc]
-10.6 -13.1 82 -13 -13 1011.9 1010.8
09 18.01 С 2-3
{3}
500 м 10/4 600 м
[Cb cap Ac trans Cc]
-11.5 -13.1 88 -16 -16 1011.6 1010.4 -10.2 0.7
12 18.01 СЗ 3-3
{4}
20 км {ливн. осадки} 8/3 600 м
[Cb cap Ac lent Ci ing]
-13.9 -15.4 88 -20 -20 1012.4 1011.2
15 18.01 СЗ 2-3
{5}
20 км ясно -14.3 -15.9 88 -19 -19 1012.6 1011.4
18 18.01 С 3-5
{5}
20 км ясно -14.7 -16.4 87 -21 -21 1014.0 1012.8
21 18.01 СЗ 2-3
{6}
20 км ясно -19.3 -21.5 83 -25 -25 1015.7 1014.4 -19.3 0.0 107
00 19.01 СЗ 2-4
{4}
20 км ясно -16.7 -19.4 80 -22 -21 1017.4 1016.2 -20.8
03 19.01 С 4-6
{7}
20 км ясно -12.1 -18.4 59 -19 -17 1016.9 1015.7
06 19.01 СВ 4-6
{8}
20 км ясно -12.6 -18.9 59 -20 -20 1017.3 1016.1
09 19.01 С 3-4
{7}
20 км ясно -16.1 -20.8 67 -23 -23 1018.9 1017.7 -11.7
12 19.01 СЗ 2-4
{5}
20 км ясно -18.7 -22.0 75 -24 -24 1019.4 1018.2
15 19.01 СЗ 3-5
{5}
20 км ясно -21.0 -23.4 81 -29 -29 1019.1 1017.8
18 19.01 СЗ 2-3
{5}
20 км ясно -26.8 -29.7 76 -34 -34 опасность
обморожения
1019.3 1018.0
21 19.01 С 2-3
{4}
20 км ясно -24.2 -26.7 80 -31 -31 опасность
обморожения
1018.5 1017.2 -29.6 107
00 20.01 С 3-4
{4}
20 км 8/0
[Ac trans Ci ing]
-21.7 -24.1 81 -30 -29 1018.3 1017.0
03 20.01 СВ 2-3
{5}
20 км ясно -15.1 -20.7 62 -20 -17 1016.6 1015.4
06 20.01 С 1-2
{4}
20 км ясно -13.8 -20.9 55 -16 -16 1015.6 1014.4
09 20.01 С 2-3
{3}
20 км ясно -17.8 -22.2 68 -23 -23 1015.3 1014.1 -13.4
12 20.01 С 2-3
{3}
20 км ясно -23.1 -25.4 81 -29 -29 1014.1 1012.8
15 20.01 С 4-6
{6}
20 км 10/0
[Ci ing]
-20.1 -22.8 79 -29 -29 1012.3 1011.1
18 20.01 С 3-5
{6}
20 км 10/5 600 м
[Cb cap Ac trans Ci ing]
-18.2 -20.5 82 -25 -25 1010.6 1009.4
21 20.01 С 4-6
{7}
2000 м слабый ливневой снег 10/10 210 м
[Cb cap]
-19.0 -21.4 81 -28 -28 1008.8 1007.6 -25.2 1 109
00 21.01 С 4-6
{7}
4000 м слабый ливневой снег {метель} 10/10 300 м
[Cb cap]
-17.9 -20.4 81 -26 -26 1007.7 1006.5
03 21.01 С 5-7
{8}
4000 м слабый ливневой снег {метель} 10/10 360 м
[Cb cap]
-16.5 -19.3 79 -26 -26 1006.1 1004.9
06 21.01 С 5-9
{9}
4000 м слабый ливневой снег {метель} 10/10 360 м
[Cb cap]
-16.0 -19.6 74 -25 -25 1005.8 1004.6
09 21.01 С 5-9
{11}
10 км слабый ливневой снег {метель} 10/5 600 м
[Cb cap Ac As Ci ing]
-16.5 -20.7 70 -26 -26 1007.0 1005.8 -15.7 1
12 21.01 С 2-3
{9}
20 км в посл. час ливневой снег {метель} 10/3 600 м
[Cb cap Ac As Ci ing]
-18.5 -21.6 77 -24 -24 1008.4 1007.2
15 21.01 С 3-4
{5}
20 км 4/0
[Ac trans]
-19.0 -22.2 76 -26 -26 1009.6 1008.4
18 21.01 СЗ 2-3
{8}
20 км ясно -21.7 -24.3 79 -28 -28 1011.4 1010.2
21 21.01 СЗ 3-4
{4}
20 км ясно -26.1 -28.4 81 -35 -35 опасность
обморожения
1012.2 1010.9 -28.3 0.0 107
00 22.01 СЗ 1-2
{4}
20 км ясно -25.3 -28.1 77 -29 -27 1013.3 1012.0 -29.2
03 22.01 СВ 3-3
{3}
10 км осадки на расстоянии 3/3 600 м
[Cb cap]
-17.0 -23.0 60 -24 -22 1012.3 1011.1
06 22.01 С 2-3
{3}
20 км в посл. час ливневой снег 8/4 600 м
[Cb cap Ci ing]
-15.3 -18.8 75 -20 -20 1012.7 1011.5
09 22.01 С 2-2
{4}
20 км 3/3 600 м
[Cb cap]
-22.3 -25.8 73 -29 -29 1014.0 1012.8 -15.1 0.2
12 22.01 С 2-2
{3}
20 км ясно -28.2 -30.7 79 -35 -35 опасность
обморожения
1015.8 1014.6
15 22.01 СЗ 2-2
{3}
20 км ясно -30.3 -33.4 74 -38 -38 опасность
обморожения
1017.5 1016.3
18 22.01 С 3-4
{4}
20 км ясно -29.8 -32.8 75 -39 -39 опасность
обморожения
1018.8 1017.5
21 22.01 С 4-6
{6}
20 км ясно -28.3 -31.4 75 -39 -39 опасность
обморожения
1018.9 1017.6 -34.5 106
00 23.01 С 4-5
{6}
20 км 4/0
[Ci fib]
-26.2 -29.1 76 -37 -36 опасность
обморожения
1020.8 1019.5

 

Местоположение метеостанции Поронайск (Сахалинская область, Россия): широта 49.22 долгота 143.10 высота над уровнем моря 8 м.

В архиве по умолчанию представлена погода в Поронайске за последнюю неделю. Архивные данные за месяц целиком и за предыдущие месяцы, начиная с января 2011 года, Вы можете получить, выбрав интересующий диапазон дат из раскрывающегося списка и нажав кнопку "Ввод!".

Внимание! Время в таблицах - всемирное. Для получения местного времени необходимо прибавить поправку, которая в Поронайске равна 11 ч.

Смотрите также архив погоды в соседних городах и на ближайших метеорологических станциях:

Погода в Макарове (Сахалинская область, Россия) (73 км)
Погода в Углегорске (Сахалинская область, Россия) (82 км)
Погода в Первомайском (Сахалинская область, Россия) (84 км)
Погода в Пильво (Сахалинская область, Россия) (117 км)
Погода в Оноре (Сахалинская область, Россия) (120 км)
Погода на Мысе Терпения (Сахалинская область, Россия) (133 км)
Погода в Пограничном (Сахалинская область, Россия) (138 км)
Погода в Ильинском (Сахалинская область, Россия) (153 км)
Погода в Тымовском (Сахалинская область, Россия) (170 км)
Погода в Александровск-Сахалинском (Сахалинская область, Россия) (200 км)

Пояснения к столбцам:

Ветер - указаны скорость ветра в м/с - средняя за 10 мин, порывы в срок и между сроками (в фигурных скобках) и направление, откуда дует ветер: С - северный, СВ - северо-восточный, В - восточный, ЮВ - юго-восточный, Ю - южный, ЮЗ - юго-западный, З - западный, СЗ - северо-западный.
Видимость - горизонтальная дальность видимости в метрах или километрах. При видимости от 1 до 10 км при отсутствии осадков обычно наблюдается дымка, при ухудшении видимости до 1 км и менее - туман. В сухую погоду видимость может ухудшаться дымом, пылью или мглою.
Явления - указаны атмосферные явления, наблюдавшиеся в срок или в последний час перед сроком; фигурными скобками обозначены явления, наблюдавшиеся между сроками (за 1-3 часа до срока); квадратными скобками обозначены град или гололедные отложения с указанием их диаметра в мм.
Облачность - указаны через наклонную черту общая и нижняя облачность в баллах и высота нижней границы облаков в метрах; квадратными скобками обозначены формы облаков: Ci - перистые, Cs - перисто-слоистые, Cc - перисто-кучевые, Ac - высококучевые, As - высокослоистые, Sc - слоисто-кучевые, Ns - слоисто-дождевые, Cu - кучевые, Cb - кучево-дождевые. Подробнее классификацию облаков см. в Атласе облаков (PDF).
T - Температура воздуха - температура, измеренная на высоте 2 м над землей.
Td - Температура точки росы - температура, при понижении до которой содержащийся в воздухе водяной пар достигнет насыщения.
f - Относительная влажность воздуха - влажноcть воздуха, измеренная на высоте 2 м над землей.
Te - Эффективная температура - температура, которую ощущает одетый по сезону человек в тени. Характеристика душности погоды. При расчете учитывается влияние влажности воздуха и скорости ветра на теплоощущения человека.
Tes - Эффективная температура на солнце - температура, которую ощущает человек, с поправкой на солнечный нагрев. Характеристика знойности погоды. Зависит от высоты солнца над горизонтом, облачности и скорости ветра. Ночью, в пасмурную погоду, а также при ветре 12 м/с и более поправка равна нулю.
P - Атмосферное давление - приведенное к уровню моря атмосферное давление.
Po - Атмосферное давление - измеренное на уровне метеостанции атмосферное давление.
Tmin - Минимальная температура - минимум температуры воздуха на высоте 2 м над землей.
Tmax - Максимальная температура - максимум температуры воздуха на высоте 2 м над землей.
R - Количество осадков - Количество выпавших осадков за период времени, мм. При наведении курсора мыши на число - период времени, за который выпало указанное количество осадков.
R24 - Количество осадков - Количество выпавших осадков за 24 часа, мм.
S - Снежный покров - Высота снежного покрова, см. При наведении курсора мыши на число - состояние снежного покрова и степень покрытия местности в баллах.